EW6500 Weather Reports


Display with metric or nautical units.
time (UTC)temp
F
wind
direction
speed
MPH
gust
MPH
rain 1hr
in
rain 24hr
in
rain mn
in
humidity
%
barometer
mb
20260506164544 52 144 0.0 1.0 0.00 0.00 0.00 85 1031.7
20260506163049 52 144 0.0 2.0 0.00 0.00 0.00 84 1031.8
20260506161541 52 144 0.0 1.0 0.00 0.00 0.00 84 1032.0
20260506160040 52 144 0.0 1.0 0.00 0.00 0.00 83 1032.0
20260506154539 53 144 0.0 1.0 0.00 0.00 0.00 82 1031.9
20260506153043 53 144 0.0 2.0 0.00 0.00 0.00 81 1031.9
20260506151537 53 144 0.0 2.0 0.00 0.00 0.00 80 1031.9
20260506150045 54 145 0.0 2.0 0.00 0.00 0.00 79 1032.0
20260506144555 54 144 0.0 2.0 0.00 0.00 0.00 78 1032.0
20260506143043 55 144 0.0 4.0 0.00 0.00 0.00 77 1032.0
20260506141534 55 63 1.0 8.0 0.00 0.00 0.00 77 1032.0
20260506140053 55 112 1.0 4.0 0.00 0.00 0.00 76 1031.9
20260506134535 55 360 1.0 3.0 0.00 0.00 0.00 76 1031.8
20260506133034 56 351 0.0 4.0 0.00 0.00 0.00 76 1031.7
20260506131541 56 90 1.0 3.0 0.00 0.00 0.00 76 1031.5
20260506130036 56 5 1.0 4.0 0.00 0.00 0.00 75 1031.5
20260506124533 56 82 1.0 4.0 0.00 0.00 0.00 75 1031.4
20260506123038 56 75 1.0 5.0 0.00 0.00 0.00 75 1031.3
20260506121530 56 58 0.0 3.0 0.00 0.00 0.00 75 1031.2
20260506120033 56 91 1.0 2.0 0.00 0.00 0.00 75 1031.2
20260506114528 56 91 0.0 2.0 0.00 0.00 0.00 73 1031.0
20260506113034 57 92 0.0 3.0 0.00 0.00 0.00 72 1030.9
20260506111527 57 92 0.0 2.0 0.00 0.00 0.00 72 1030.6
20260506110037 57 92 0.0 2.0 0.00 0.00 0.00 71 1030.6
20260506104528 58 92 0.0 2.0 0.00 0.00 0.00 69 1030.5
20260506103026 59 92 0.0 2.0 0.00 0.00 0.00 68 1030.5
20260506101532 60 92 0.0 1.0 0.00 0.00 0.00 66 1030.4
20260506100024 61 92 0.0 0.0 0.00 0.00 0.00 64 1030.3
20260506094527 63 92 0.0 2.0 0.00 0.00 0.00 62 1030.2
20260506093031 65 94 0.0 2.0 0.00 0.00 0.00 59 1030.2
20260506091522 67 102 0.0 1.0 0.00 0.00 0.00 57 1030.1
20260506090022 68 102 0.0 3.0 0.00 0.00 0.00 54 1030.0
20260506084522 68 225 1.0 4.0 0.00 0.00 0.00 55 1029.8
20260506083028 69 109 1.0 6.0 0.00 0.00 0.00 54 1029.8
20260506081520 69 20 1.0 3.0 0.00 0.00 0.00 55 1029.7
20260506073016 69 117 2.0 6.0 0.00 0.00 0.00 53 1029.5
20260506071517 69 67 0.0 6.0 0.00 0.00 0.00 54 1029.5
20260506061509 69 68 2.0 5.0 0.00 0.00 0.00 56 1029.6
20260506044555 66 76 1.0 7.0 0.00 0.00 0.00 63 1030.1
20260506043056 65 294 1.0 8.0 0.00 0.00 0.00 64 1030.3
20260506041550 65 69 2.0 10.0 0.00 0.00 0.00 64 1030.5
20260506040048 65 335 2.0 9.0 0.00 0.00 0.00 67 1030.8
20260506034605 64 70 1.0 5.0 0.00 0.00 0.00 66 1030.8
20260506033044 63 42 2.0 4.0 0.00 0.00 0.00 66 1031.1
20260506031549 62 54 2.0 9.0 0.00 0.00 0.00 68 1031.4
20260506030039 62 122 1.0 9.0 0.00 0.00 0.00 69 1031.4
20260506024536 61 36 2.0 9.0 0.00 0.00 0.00 69 1031.5
20260506023034 60 87 3.0 11.0 0.00 0.00 0.00 72 1031.6
20260506021529 59 79 2.0 9.0 0.00 0.00 0.00 76 1031.7
20260506020027 57 69 1.0 5.0 0.00 0.00 0.00 83 1031.9
20260506014523 54 300 0.0 3.0 0.00 0.00 0.00 89 1032.0
20260506013021 52 298 1.0 4.0 0.00 0.00 0.00 94 1032.0
20260506011518 50 238 1.0 2.0 0.00 0.00 0.00 94 1032.1
20260506010029 49 238 0.0 2.0 0.00 0.00 0.00 95 1032.1
20260506004508 47 238 1.0 3.0 0.00 0.00 0.00 94 1031.9
20260506003008 47 238 0.0 0.0 0.00 0.00 0.00 94 1032.0
20260506001506 46 238 0.0 0.0 0.00 0.00 0.00 94 1031.9
20260506000005 45 238 0.0 0.0 0.00 0.00 0.00 94 1031.8
20260505234504 44 238 0.0 0.0 0.00 0.00 0.00 93 1031.7
20260505233008 44 238 0.0 0.0 0.00 0.00 0.00 93 1031.5
20260505231601 44 238 0.0 0.0 0.00 0.00 0.00 93 1031.3
20260505230100 44 238 0.0 1.0 0.00 0.00 0.00 93 1031.2
20260505224557 44 237 0.0 0.0 0.00 0.00 0.00 93 1031.0
20260505223056 43 237 0.0 1.0 0.00 0.00 0.00 92 1030.8
20260505221555 44 237 0.0 0.0 0.00 0.00 0.00 92 1030.7
20260505220051 44 237 0.0 0.0 0.00 0.00 0.00 92 1030.6
20260505214601 45 237 0.0 0.0 0.00 0.00 0.00 92 1030.5
20260505213047 45 237 0.0 1.0 0.00 0.00 0.00 92 1030.3
20260505211547 45 237 0.0 0.0 0.00 0.00 0.00 92 1030.1
20260505210044 45 237 0.0 0.0 0.00 0.00 0.00 92 1029.9
20260505204540 45 237 0.0 0.0 0.00 0.00 0.00 92 1029.8
20260505203040 46 237 0.0 0.0 0.00 0.00 0.00 91 1029.8
20260505201548 46 237 0.0 0.0 0.00 0.00 0.00 92 1029.7
20260505200035 46 237 0.0 0.0 0.00 0.00 0.00 91 1029.6
20260505194535 46 237 0.0 0.0 0.00 0.00 0.00 91 1029.5
20260505193032 47 237 0.0 0.0 0.00 0.00 0.00 92 1029.5
20260505191532 47 237 0.0 0.0 0.00 0.00 0.00 91 1029.5
20260505190038 47 237 0.0 0.0 0.00 0.00 0.00 91 1029.5
20260505184529 47 237 0.0 0.0 0.00 0.00 0.00 90 1029.6
20260505183031 47 237 0.0 0.0 0.00 0.00 0.00 90 1029.5
20260505181532 47 237 0.0 0.0 0.00 0.00 0.00 90 1029.5
20260505180024 48 237 0.0 0.0 0.00 0.00 0.00 90 1029.5
20260505174523 48 237 0.0 0.0 0.00 0.00 0.00 90 1029.5
20260505173034 48 237 0.0 0.0 0.00 0.00 0.00 90 1029.6
20260505171532 48 237 0.0 0.0 0.00 0.00 0.00 90 1029.6
20260505170020 48 237 0.0 0.0 0.00 0.00 0.00 89 1029.5